Location: Clyde
(45.1830°S, 169.3170°E)
Time: 17:56:49
(UTC+12:00)

Cosmos 1939 Rocket - Pass Details

Date: 14 May 2021
Orbit: 531 x 585 km, 97.4° (Epoch: 16 June)

Event Time Altitude Azimuth Distance (km) Brightness Sun altitude
Exits shadow 19:23:32 29° 163° (SSE) 1,095 4.1 -20.9°
Maximum altitude 19:25:38 83° 79° (E) 603 2.8 -21.2°
Drops below altitude 10° 19:29:49 10° 349° (N) 1,916 5.7 -22.0°
Sets 19:31:58 0° 348° (NNW) 2,809 6.6 -22.3°
